Cupcake? Heresy? Pony? 4 stacks of plexi?

NorlinBlackBeauty

Senior Member
Joined
Oct 28, 2017
Messages
24,043
Reaction score
64,270
As is sometimes the case, the forecast mid 30s aren't likely happening. Might be all snow now. :/

Code:
EASTERN PENNSYLVANIA
 
CITY           SKY/WX    TMP DP  RH WIND       PRES   REMARKS
PHILADELPHIA   LGT SNOW  29  13  51 VRB3      30.29F                
NORTH PHILA    CLOUDY    27  16  63 E6        30.31F WCI  20        
BLUE BELL*     FLURRIES  25  18  76 SE7       30.27F WCI  17        
DOYLESTOWN     LGT SNOW  24  17  74 SE6       30.25F WCI  17        
QUAKERTOWN*    CLOUDY    23  18  80 VRB6G13   30.24  HAZE    WCI  16
PERKASIE*      LGT SNOW  23  19  86 SE5       30.25F WCI  17        
POTTSTOWN      LGT SNOW  22  20  92 VRB5      30.27F VSB 3/4 WCI  16
LANCASTER      LGT SNOW  27  22  81 SE7       30.20F WCI  19        
COATESVILLE    SNOW      25  23  93 VRB6      30.22F VSB 1/2 WCI  18
WEST CHESTER   LGT SNOW  27  23  86 SE6       30.24F VSB 3/4 WCI  20
READING        NOT AVBL                                             
ALLENTOWN      LGT SNOW  25  16  68 SE5       30.24F WCI  19        
QN CITY/ALNTWN LGT SNOW  27  19  74 S7        30.26F WCI  19        
MOUNT POCONO   LGT SNOW  15  12  88 S14       30.10F VSB 3/4 WCI   0
HAZLETON       LGT SNOW  21  16  79 SE9G16    30.11F WCI  11        
WILKES BARRE   LGT SNOW  24  16  71 VRB7      30.12F WCI  16
Looks like Dav will clear out soon. A lot of precip is still headed my way, moving almost due east.

1579376747452.png
 

NorlinBlackBeauty

Senior Member
Joined
Oct 28, 2017
Messages
24,043
Reaction score
64,270
Spoke too soon. Seems warmer air is moving in aloft as the snow has changed to mixed partially wet precip now.

Code:
EASTERN PENNSYLVANIA
   
 CITY           SKY/WX    TMP DP  RH WIND       PRES   REMARKS
 PHILADELPHIA   LGT SNOW  28  23  81 SE6       30.23F WCI  22          
 NORTH PHILA    SNOW      26  20  77 E5        30.25F VSB 1/2 WCI  20  
 BLUE BELL*     LGT SNOW  23  21  91 SE7       30.21F VSB 3/4 WCI  15  
 DOYLESTOWN     LGT SNOW  23  18  81 VRB7      30.19F WCI  15          
 QUAKERTOWN*    CLOUDY    23  19  86 SE6       30.18  FOG     WCI  16  
 PERKASIE*      LGT SNOW  23  23 100 SE6       30.19F VSB 3/4 WCI  16  
 POTTSTOWN      LGT SNOW  22  20  92 VRB7      30.20F FOG     WCI  13  
 LANCASTER      SNOW      27  23  85 SE9       30.15F VSB 1/2 WCI  18  
 COATESVILLE    LGT SNOW  25  25 100 SE7       30.17F WCI  17          
 WEST CHESTER   LGT SNOW  27  23  86 SE6       30.19F WCI  20          
 READING        MIX PCPN  25  21  85 SE8       30.17  FOG     WCI  16  
 ALLENTOWN      LGT SNOW  25  19  78 S7        30.17F VSB 3/4 WCI  17  
 QN CITY/ALNTWN LGT SNOW  25  21  86 S6        30.19F VSB 1   WCI  18  
 MOUNT POCONO   SNOW      15  12  88 SE9       30.02F VSB 1/2 WCI   3  
 HAZLETON       LGT SNOW  21  16  79 SE6G21    30.04F WCI  14          
 WILKES BARRE   SNOW      24  17  74 VRB7      30.06F VSB 1/2 WCI  16  
 
 $$
 DEZALL-MDZ008-012-015-019-020-182100-
 DELAWARE AND EASTERN MARYLAND
   
 CITY           SKY/WX    TMP DP  RH WIND       PRES   REMARKS
 WILMINGTON     MIX PCPN  29  24  82 SE9       30.23F WCI  20          
 DOVER          CLOUDY    34  23  64 SE5       30.21F WCI  30          
 CHESWOLD       CLOUDY    34  21  60 SE3       30.22F                  
 GEORGETOWN     CLOUDY    38  26  62 S7        30.23F WCI  33          
 EASTON         CLOUDY    36  28  75 SE7       30.24F WCI  30          
 STEVENSVILLE   CLOUDY    34  28  80 S10       30.21F WCI  26          
 ABERDEEN       MIX PCPN  31  25  80 S7        30.22  WCI  24          
 PATUXENT       LGT RAIN  40  30  67 S10G17    30.21  WCI  33          
 OCEAN CITY     LGT RAIN  41  31  67 S8G18     30.23F                  
 WALLOPS ISLAND CLOUDY    42  33  70 S17       30.24F                  
 CAMBRIDGE      CLOUDY    37  28  70 S9        30.22F WCI  31          
 SALISBURY      CLOUDY    39  27  62 S6        30.22F WCI  35
 

DavGrape

Senior Member
Joined
Jan 5, 2012
Messages
17,949
Reaction score
51,768
Reeding Railroad

Everybody in the world says Reeding Railroad.
Even the people in Redding.
Thick necks that sit in the palm are better.
Not just different.
Better.
They're better.
Everybody in the world thinks so.
DSCN2589.JPG
 
Last edited:

NorlinBlackBeauty

Senior Member
Joined
Oct 28, 2017
Messages
24,043
Reaction score
64,270
Reeding Railroad

Everybody in the world says Reeding Railroad.
Even the people in Redding.
Thick necks that sit in the palm are better.
Not just different.
Better.
They're better.
Everybody in the world thinks so.
...the there was a Reading Railroad in PA. Reading as in 'red', not reed. I'm not far from Reading.

 

NorlinBlackBeauty

Senior Member
Joined
Oct 28, 2017
Messages
24,043
Reaction score
64,270
Thought your thumb bend was odd until I looked at mine. Both quite different.

The left thumb is almost straight.

I recall trying catching in little league, an incoming pitch hit at the end of the thumb portion of the mitt, bending the thumb beyond its range. Hurt like a mudderfokker! I'm guessing that had something to with the no bend.

IMG0148.jpg



The right thumb is the opposite. :dunno:


IMG0146.jpg
 
Last edited:

DavGrape

Senior Member
Joined
Jan 5, 2012
Messages
17,949
Reaction score
51,768
Tried to embellish my latest recording, can't be done.
Sounds like a sloppy band.
Should have done first guitar with drum or click track.
The whole basis is wrong, is what I'm saying.
The foundation isn't there is what I'm getting at.
That's OK.
I only have eternity.
Wonder Woman TV show is on.
Wow was that bad.
No wonder I never watched it.
Wonder Woman runs everywhere she goes.
Runs like a girl.
Kinda conked out, short nap.
Chatty now.
Chat like a girl.
Ack! What a memory... I useta have this set of Monster Old Maid playing cards. Useta look thru them all the time.
They were big, with awesome graphics.
MmonsterOldMaTWO.jpeg

9dcb3847aea4300affb8b9abc6450f7c.jpg

index.jpg
 
Last edited:

NorlinBlackBeauty

Senior Member
Joined
Oct 28, 2017
Messages
24,043
Reaction score
64,270
Tried to embellish my latest recording, can't be done.
Sounds like a sloppy band.
Should have done first guitar with drum or click track.
The whole basis is wrong, is what I'm saying.
The foundation isn't there is what I'm getting at.
That's OK.
I only have eternity.
Wonder Woman TV show is on.
Wow was that bad.
No wonder I never watched it.
Wonder Woman runs everywhere she goes.
Runs like a girl.
Kinda conked out, short nap.
Chatty now.
Chat like a girl.
Short thoughts.
All I can type.
Whatever comes to mind.
Not sure what to do.
Songs go like that.
Lynda Carter on bad show.
Boobs bounce when running?
Have to look outside.
Think precip is done.
May need to clear sidewalk.
Winter sucks canker pus.
That is all.
For now.
 
Last edited:

DavGrape

Senior Member
Joined
Jan 5, 2012
Messages
17,949
Reaction score
51,768
Aw, mang; mild winter.
At least here.
Wonder Woman do indeed have some clavicles.
Got the sound turned down; playing guitar.
Hahaha!
Playing Norman really loud.
Spider went running up the wall behind the amp after I cranked it.
Hahaha!
 

NorlinBlackBeauty

Senior Member
Joined
Oct 28, 2017
Messages
24,043
Reaction score
64,270
Aw, mang; mild winter.
At least here.
Wonder Woman do indeed have some clavicles.
Same here, mild with no real snow until today - and then not really. Maybe 1" - 2" of near perfect sno-cone material. Heart attack grade. My problem is I attack it like I'm still 30. After a few minutes I face reality.

I hate these shitty nuisance storms not worth getting the snow machine out for! ~150' of sidewalk. DO NOT buy a corner lot!

BouncingMad.gif


You call tits 'clavicles' out your way? That's crazy talk right there.
 


Latest Threads



Top